Miscellaneous Local Product
Issued by NWS North Platte, NE

Home | Current Version | Previous Version | Text Only | Print | Product List | Glossary On
Versions: 1 2 3 4 5 6 7 8 9 10 11 12 13 14 15 16 17 18 19 20 21 22 23 24 25 26 27 28 29 30 31 32 33 34 35 36 37 38 39 40 41 42 43 44 45 46 47 48 49 50
000
AXUS43 KLBF 251510
MISLBF


WESTERN AND NORTH CENTRAL NEBRASKA HOURLY WEATHER ROUNDUP
NATIONAL WEATHER SERVICE NORTH PLATTE NE
900 AM CST SUN FEB 25 2018

NOTE: "FAIR" INDICATES FEW OR NO CLOUDS BELOW 12,000 FEET WITH NO
SIGNIFICANT WEATHER AND/OR OBSTRUCTIONS TO VISIBILITY.

NOTE: STATIONS NOT REPORTING VARIABLES SUCH AS SKY/WEATHER OR
PRESSURE ARE PROVIDED BY RAWS AND APRS NETWORKS AND ARE NOT UNDER
NATIONAL WEATHER SERVICE QUALITY CONTROL.

...OBSERVATIONS IN AND NEAR THE EASTERN PANHANDLE OF NEBRASKA...

CITY           SKY/WX    TMP DP  RH WIND       PRES   REMARKS
PINE RIDGE     PTSUNNY  N/A N/A N/A MISG      29.82R
GORDON         FAIR      17   6  62 NW7       29.80R WCI   7
CHADRON        MOSUNNY    3  -1  83 SW7       29.84R WCI  -9
ALLIANCE       PTSUNNY   21  12  68 CALM      29.83R
SIDNEY         MOSUNNY   27   8  44 W12       29.88R WCI  17
CRESCENT LAKE    N/A     26  13  57 W9          N/A  WCI  17
$$

...OBSERVATIONS IN NORTHERN NEBRASKA AND FAR SOUTHERN SOUTH DAKOTA...

CITY           SKY/WX    TMP DP  RH WIND       PRES   REMARKS
WINNER         FAIR      22   8  55 W8        29.83R WCI  12
VALENTINE      MOSUNNY   17   7  64 SW9       29.84R WCI   6
AINSWORTH      PTSUNNY   19  11  72 SW7       29.85R WCI  10
O`NEILL        SUNNY     21  11  65 SW8       29.87S WCI  12
THEDFORD       PTSUNNY   27  17  66 SW6       29.87R WCI  20
BROKEN BOW     SUNNY     23  11  60 W10       29.90R WCI  12
ORD            SUNNY     24  12  60 W5        29.90R WCI  18
ALBION         SUNNY     23  12  63 W5        29.91R WCI  17
VALENTINE NWR    N/A     20   9  61 SW6         N/A  WCI  12
HALSEY           N/A     25  12  58 SW5         N/A  WCI  19
BUTTE            N/A     18  10  70 W10         N/A  WCI   6
CHAMBERS         N/A     25  10  53 W3          N/A
EWING            N/A     20  12  69 W3          N/A
$$

...OBSERVATIONS IN SOUTHWEST NEBRASKA AND FAR NORTHEAST COLORADO...

CITY           SKY/WX    TMP DP  RH WIND       PRES   REMARKS
WRAY           FAIR      27  14  59 W9        29.93R WCI  17
HOLYOKE        FAIR      27  14  59 W7        29.91R WCI  19
IMPERIAL       SUNNY     24  14  65 W7        29.93R WCI  16
OGALLALA       SUNNY     23  14  69 W8        29.90R WCI  13
NORTH PLATTE   SUNNY     15   9  76 NW3       29.92R
MCCOOK         PTSUNNY   28  19  69 W8        29.96R WCI  20
LEXINGTON      SUNNY     23  17  78 CALM      29.94R
STAPLETON        N/A     20  13  72 CALM        N/A
$$

...OBSERVATIONS IN CENTRAL LINCOLN COUNTY AREA...

CITY           SKY/WX    TMP DP  RH WIND       PRES   REMARKS
N.P. AIRPORT   SUNNY     15   9  76 NW3       29.92R
N.P. DOWNTOWN    N/A     19  13  76 CALM        N/A
N.P. SOUTHEAST   N/A     20  12  70 W3          N/A
N.P. HILLCREST   N/A     19  11  72 SW3         N/A
$$

...OBSERVATIONS ACROSS THE ROCKIES AND WESTERN HIGH PLAINS...

CITY           SKY/WX    TMP DP  RH WIND       PRES   REMARKS
RAPID CITY     SUNNY     16   5  62 W7        29.76R WCI   6
SCOTTSBLUFF    MOSUNNY   27  13  55 W12       29.86R WCI  17
CHEYENNE       SUNNY     21   6  52 W16       29.84R WCI   7
DENVER         MOSUNNY   28   5  37 W16       29.88R WCI  16
BERTHOUD PASS  HVY SNOW  -8 -18  59 MISG      29.59F VSB<1/4
COPPER MTN     CLOUDY     1  -6  71 W26G35    29.69S HAZE    WCI -23
MONARCH PASS   CLOUDY     0  -6  78 W35G41    29.82S WCI -28
ASPEN          LGT SNOW  11   8  88 N3        29.93R FOG
LARAMIE        MOSUNNY   12   6  77 W21       29.80R WCI  -7
CASPER         MOSUNNY   13   5  70 SW23      29.80R WCI  -6
$$

...OBSERVATIONS ACROSS THE NORTHERN PLAINS...

CITY           SKY/WX    TMP DP  RH WIND       PRES   REMARKS
BISMARCK       SUNNY     22  15  75 W18       29.67R WCI   7
FARGO          CLOUDY    20  16  84 W10       29.60R WCI   9
PIERRE         SUNNY     19  13  77 W10       29.79R WCI   7
SIOUX FALLS    MOSUNNY   20  12  71 W12       29.81R WCI   8
$$

...OBSERVATIONS ACROSS THE CENTRAL AND SOUTHERN PLAINS...

CITY           SKY/WX    TMP DP  RH WIND       PRES   REMARKS
OMAHA          PTSUNNY   28  18  66 SW5       29.94S WCI  23
GRAND ISLAND   SUNNY     27  16  63 W14       29.94R WCI  16
KANSAS CITY    MOSUNNY   32  24  72 SW10      30.03R WCI  24
WICHITA        MOSUNNY   31  28  89 CALM      30.06R
DODGE CITY     CLOUDY    34  12  40 SE8       29.99R WCI  27
OKLAHOMA CITY  MOSUNNY   37  35  92 SE6       30.06R WCI  32
DALLAS         PTSUNNY   51  44  77 VRB3      30.05R
AMARILLO       SUNNY     43   7  22 SW10      29.97R
$$




USA.gov is the U.S. government's official web portal to all federal, state and local government web resources and services.